• In Uzbekistan
  • List of Countries
  • For 7 days
  • Water Temperature
  • Satellite Maps
  • Weather Map
  • Weather Widgets
  • user-avatar
    Login

    Hourly Weather Zirndorf

    Today, 19 July, Thursday

    Time Temperature Precipitation Wind Pressure Humidity
    00:00 +18°C° 0 mm 1 mps 736 mmHg 81%
    01:00 +17°C° 0 mm 2 mps 736 mmHg 80%
    02:00 +16°C° 0 mm 1 mps 736 mmHg 82%
    03:00 +16°C° 0 mm 1 mps 736 mmHg 85%
    04:00 +15°C° 0 mm 1 mps 736 mmHg 87%
    05:00 +16°C° 0 mm 1 mps 736 mmHg 82%
    06:00 +19°C° 0 mm 1 mps 736 mmHg 77%
    07:00 +20°C° 0 mm 1 mps 736 mmHg 72%
    08:00 +22°C° 0 mm 1 mps 736 mmHg 65%
    09:00 +24°C° 0 mm 1 mps 736 mmHg 58%
    10:00 +25°C° 0 mm 1 mps 736 mmHg 51%
    11:00 +26°C° 0 mm 2 mps 736 mmHg 47%
    12:00 +27°C° 0 mm 2 mps 736 mmHg 44%
    13:00 +28°C° 0 mm 2 mps 736 mmHg 41%
    14:00 +28°C° 0 mm 2 mps 736 mmHg 41%
    15:00 +28°C° 0 mm 2 mps 736 mmHg 40%
    16:00 +28°C° 0 mm 2 mps 735 mmHg 40%
    17:00 +27°C° 0 mm 2 mps 735 mmHg 46%
    18:00 +26°C° 0 mm 2 mps 735 mmHg 53%
    19:00 +24°C° 0 mm 2 mps 735 mmHg 59%
    20:00 +23°C° 0 mm 2 mps 735 mmHg 63%
    21:00 +20°C° 0 mm 2 mps 735 mmHg 67%
    22:00 +18°C° 0 mm 2 mps 735 mmHg 71%
    23:00 +18°C° 0 mm 2 mps 735 mmHg 73%

    Tomorrow, 20 July, Friday

    Time Temperature Precipitation Wind Pressure Humidity
    00:00 +18°C° 0 mm 1 mps 735 mmHg 75%
    01:00 +16°C° 0 mm 1 mps 735 mmHg 77%
    02:00 +16°C° 0 mm 1 mps 735 mmHg 79%
    03:00 +15°C° 0 mm 1 mps 735 mmHg 81%
    04:00 +15°C° 0 mm 1 mps 735 mmHg 83%
    05:00 +16°C° 0 mm 1 mps 735 mmHg 80%
    06:00 +19°C° 0 mm 1 mps 735 mmHg 76%
    07:00 +20°C° 0 mm 1 mps 735 mmHg 73%
    08:00 +22°C° 0 mm 1 mps 735 mmHg 67%
    09:00 +24°C° 0 mm 1 mps 735 mmHg 61%
    10:00 +26°C° 0 mm 1 mps 735 mmHg 54%
    11:00 +27°C° 0 mm 1 mps 735 mmHg 50%
    12:00 +28°C° 0 mm 1 mps 734 mmHg 47%
    13:00 +30°C° 0 mm 1 mps 734 mmHg 43%
    14:00 +29°C° 0 mm 1 mps 734 mmHg 42%
    15:00 +29°C° 0 mm 1 mps 734 mmHg 42%
    16:00 +29°C° 0 mm 1 mps 733 mmHg 41%
    17:00 +28°C° 0 mm 1 mps 733 mmHg 47%
    18:00 +27°C° 0 mm 1 mps 732 mmHg 53%
    19:00 +26°C° 0 mm 1 mps 732 mmHg 58%
    20:00 +24°C° 0 mm 1 mps 732 mmHg 62%
    21:00 +23°C° 0 mm 1 mps 732 mmHg 66%
    22:00 +21°C° 0 mm 1 mps 732 mmHg 70%
    23:00 +21°C° 0.1 mm 1 mps 732 mmHg 72%

    Day after tomorrow, 21 July, Saturday

    Time Temperature Precipitation Wind Pressure Humidity
    00:00 +20°C° 0.1 mm 1 mps 732 mmHg 75%
    01:00 +20°C° 0.1 mm 1 mps 732 mmHg 77%
    02:00 +19°C° 0.2 mm 1 mps 732 mmHg 80%
    03:00 +19°C° 0.2 mm 1 mps 731 mmHg 83%
    04:00 +18°C° 0.2 mm 1 mps 731 mmHg 87%
    05:00 +19°C° 0.4 mm 1 mps 731 mmHg 86%
    06:00 +20°C° 0.4 mm 1 mps 731 mmHg 85%
    07:00 +21°C° 0.4 mm 1 mps 732 mmHg 85%
    08:00 +22°C° 0.6 mm 1 mps 732 mmHg 82%
    09:00 +22°C° 0.6 mm 1 mps 732 mmHg 80%
    10:00 +23°C° 0.6 mm 2 mps 732 mmHg 78%
    11:00 +24°C° 1.2 mm 2 mps 732 mmHg 75%
    12:00 +25°C° 1.2 mm 2 mps 732 mmHg 72%
    13:00 +26°C° 1.2 mm 2 mps 732 mmHg 69%
    14:00 +26°C° 0.9 mm 2 mps 732 mmHg 69%
    15:00 +26°C° 0.9 mm 2 mps 732 mmHg 70%
    16:00 +26°C° 0.9 mm 2 mps 732 mmHg 71%
    17:00 +25°C° 0.4 mm 2 mps 732 mmHg 75%
    18:00 +24°C° 0.4 mm 2 mps 731 mmHg 79%
    19:00 +23°C° 0.4 mm 1 mps 731 mmHg 83%
    20:00 +22°C° 0.8 mm 1 mps 731 mmHg 85%
    21:00 +21°C° 0.8 mm 1 mps 732 mmHg 87%
    22:00 +20°C° 0.8 mm 1 mps 732 mmHg 89%
    23:00 +20°C° 0 mm 1 mps 731 mmHg 90%

    22 July, Sunday

    Time Temperature Precipitation Wind Pressure Humidity
    00:00 +19°C° 0 mm 1 mps 731 mmHg 91%
    01:00 +19°C° 0 mm 1 mps 731 mmHg 91%
    02:00 +18°C° 0.1 mm 1 mps 731 mmHg 92%
    03:00 +18°C° 0.1 mm 1 mps 731 mmHg 93%
    04:00 +18°C° 0.1 mm 1 mps 731 mmHg 93%
    05:00 +19°C° 0.1 mm 1 mps 731 mmHg 92%
    06:00 +20°C° 0.1 mm 1 mps 732 mmHg 91%
    07:00 +20°C° 0.1 mm 1 mps 732 mmHg 89%
    08:00 +22°C° 0.7 mm 1 mps 732 mmHg 84%
    09:00 +23°C° 0.7 mm 1 mps 732 mmHg 79%
    10:00 +25°C° 0.7 mm 2 mps 732 mmHg 74%
    11:00 +26°C° 0.8 mm 2 mps 732 mmHg 70%
    12:00 +26°C° 0.8 mm 2 mps 732 mmHg 67%
    13:00 +27°C° 0.8 mm 3 mps 732 mmHg 63%
    14:00 +27°C° 0.9 mm 3 mps 732 mmHg 66%
    15:00 +26°C° 0.9 mm 3 mps 732 mmHg 69%
    16:00 +26°C° 0.9 mm 3 mps 732 mmHg 72%
    17:00 +25°C° 0.6 mm 3 mps 732 mmHg 75%
    18:00 +24°C° 0.6 mm 2 mps 732 mmHg 79%
    19:00 +23°C° 0.6 mm 2 mps 732 mmHg 82%
    20:00 +21°C° 0.3 mm 2 mps 733 mmHg 85%
    21:00 +19°C° 0.3 mm 2 mps 733 mmHg 87%
    22:00 +18°C° 0.3 mm 2 mps 733 mmHg 89%
    23:00 +19°C° 0 mm 1 mps 734 mmHg 90%

    23 July, Monday

    Time Temperature Precipitation Wind Pressure Humidity
    00:00 +18°C° 0 mm 1 mps 734 mmHg 90%
    01:00 +18°C° 0 mm 1 mps 734 mmHg 91%
    02:00 +18°C° 0 mm 1 mps 734 mmHg 92%
    03:00 +16°C° 0 mm 1 mps 734 mmHg 92%
    04:00 +16°C° 0 mm 1 mps 734 mmHg 93%
    05:00 +18°C° 0 mm 1 mps 735 mmHg 91%
    06:00 +19°C° 0 mm 1 mps 735 mmHg 89%
    07:00 +19°C° 0 mm 1 mps 735 mmHg 87%
    08:00 +21°C° 0.1 mm 1 mps 735 mmHg 80%
    09:00 +23°C° 0.1 mm 2 mps 735 mmHg 74%
    10:00 +24°C° 0.1 mm 2 mps 735 mmHg 67%
    11:00 +25°C° 0.1 mm 2 mps 735 mmHg 62%
    12:00 +26°C° 0.1 mm 2 mps 735 mmHg 57%
    13:00 +27°C° 0.1 mm 3 mps 735 mmHg 52%
    14:00 +27°C° 0 mm 2 mps 735 mmHg 52%
    15:00 +27°C° 0 mm 2 mps 735 mmHg 51%
    16:00 +27°C° 0 mm 2 mps 735 mmHg 51%
    17:00 +26°C° 0 mm 2 mps 735 mmHg 57%
    18:00 +25°C° 0 mm 1 mps 735 mmHg 62%
    19:00 +25°C° 0 mm 1 mps 735 mmHg 67%
    20:00 +23°C° 0 mm 1 mps 735 mmHg 72%
    21:00 +21°C° 0 mm 1 mps 735 mmHg 76%
    22:00 +20°C° 0 mm 1 mps 735 mmHg 80%
    23:00 +19°C° 0 mm 1 mps 735 mmHg 82%

    24 July, Tuesday

    Time Temperature Precipitation Wind Pressure Humidity
    00:00 +19°C° 0 mm 1 mps 735 mmHg 84%
    01:00 +18°C° 0 mm 1 mps 735 mmHg 86%
    02:00 +18°C° 0 mm 1 mps 735 mmHg 88%
    03:00 +18°C° 0 mm 1 mps 735 mmHg 89%
    04:00 +16°C° 0 mm 1 mps 734 mmHg 90%
    05:00 +19°C° 0 mm 1 mps 735 mmHg 86%
    06:00 +20°C° 0 mm 1 mps 735 mmHg 83%
    07:00 +21°C° 0 mm 1 mps 735 mmHg 79%
    08:00 +23°C° 0 mm 2 mps 735 mmHg 72%
    09:00 +24°C° 0 mm 2 mps 735 mmHg 65%
    10:00 +26°C° 0 mm 2 mps 735 mmHg 58%
    11:00 +27°C° 0 mm 2 mps 734 mmHg 54%
    12:00 +28°C° 0 mm 2 mps 734 mmHg 50%
    13:00 +29°C° 0 mm 2 mps 734 mmHg 46%
    14:00 +30°C° 0 mm 2 mps 734 mmHg 45%
    15:00 +30°C° 0 mm 2 mps 733 mmHg 44%
    16:00 +30°C° 0 mm 1 mps 733 mmHg 43%
    17:00 +29°C° 0 mm 1 mps 733 mmHg 49%
    18:00 +28°C° 0 mm 1 mps 733 mmHg 54%
    19:00 +26°C° 0 mm 1 mps 733 mmHg 60%
    20:00 +25°C° 0 mm 1 mps 734 mmHg 64%
    21:00 +23°C° 0 mm 1 mps 734 mmHg 67%
    22:00 +21°C° 0 mm 1 mps 734 mmHg 71%
    23:00 +21°C° 0 mm 1 mps 734 mmHg 73%
    Show more